www.pogodaiklimat.ru

Погода и климат >> Архив погоды >> Мексика >> Туспан


ПОГОДА в Туспане

  • Прогноз погоды в Туспане
  • Монитор погоды в Туспане

АРХИВ ПОГОДЫ в Туспане

Время (UTC), дата Ветер
(напр.,м/с)
 
Видим.   Явления Облачность Т
(С)
Тd
(С)
f
(%)
Тe
(С)
Тes
(С)
Комфортность P
(гПа)
Po
(гПа)
Тmin
(С)
Tmax
(С)
R
(мм)
R24
(мм)
S
(см)
03 17.02 ЮВ 2 1000 м 8/4 60 м
[Sc As op]
+23.4 +22.8 96 +33 +33 очень
душно
1004.3 1003.2
06 17.02 ЮВ 1 1000 м дымка 8/4 30 м
[Sc As op]
+23.0 +22.7 98 +32 +32 очень
душно
1004.2 1003.0 +20.6 +31.2
09 17.02 штиль 0 1000 м дымка {туман} 9/5 30 м
[Sc As op]
+23.0 +22.7 98 +32 +32 очень
душно
1002.8 1001.6
12 17.02 ЮВ 2 1000 м дымка {туман} 10/6 30 м
[Sc As op]
+23.0 +22.7 98 +32 +32 очень
душно
1003.5 1002.4 +21.6 +31.2
15 17.02 ЮЗ 1 8000 м дымка {туман} 9/5 90 м
[Sc diur, vesp As op]
+22.4 +21.8 96 +30 +31 очень
душно
1006.0 1004.9
18 17.02 ЮЗ 1 8000 м ясно +28.2 +25.1 83 +41 +59 опасность
перегрева
1005.7 1004.5 +21.4 +29.6
21 17.02 ЮВ 1 8000 м ясно +30.2 +28.3 90 +51 +62 опасность
перегрева
1003.8 1002.7
00 18.02 СЗ 2 8000 м 6/5 90 м
[Sc diur, vesp As op]
+25.4 +24.8 96 +36 +36 очень
душно
1006.0 1004.9 +21.4 +33.0
03 18.02 С 3 1000 м 3/3 60 м
[Sc]
+24.4 +23.8 96 +33 +33 очень
душно
1008.4 1007.2
06 18.02 С 3 1000 м 4/4 60 м
[Sc]
+23.6 +23.0 96 +31 +31 очень
душно
1012.1 1011.0 +21.4 +33.0
09 18.02 С 2 1000 м 8/4 60 м
[Sc As op]
+23.4 +22.8 96 +33 +33 очень
душно
1012.3 1011.1
12 18.02 С 3 1000 м 9/5 60 м
[Sc As op]
+22.2 +21.6 96 +29 +29 очень
душно
1013.6 1012.5 +20.6 +33.0
15 18.02 С 2 8000 м 10/5 90 м
[Sc As op]
+21.6 +21.1 97 +28 +28 очень
душно
1016.8 1015.6
18 18.02 СЗ 2 8000 м 10/4 210 м
[Sc As op]
+22.6 +21.1 91 +30 +32 очень
душно
1017.8 1016.7 +20.4 +24.4
21 18.02 СЗ 2 8000 м 9/4 210 м
[Sc As op]
+22.4 +20.9 91 +29 +31 очень
душно
1016.0 1014.8
00 19.02 С 1 6000 м 10/4 120 м
[Sc As op]
+20.8 +19.9 95 +27 +27 душно 1016.0 1014.9 +19.6 +24.4
03 19.02 С 1 1000 м 10/4 60 м
[Sc As op]
+19.8 +19.5 98 +24 +24 комфорт 1017.7 1016.5
06 19.02 С 2 1000 м 10/4 180 м
[Sc As op]
+19.8 +18.5 92 +23 +23 комфорт 1018.2 1017.0 +24.4
09 19.02 С 1 1000 м в посл. час морось 10/4 90 м
[Sc As op]
+19.2 +18.6 96 +22 +22 комфорт 1016.5 1015.3 0.0
12 19.02 С 1 1000 м {морось} 10/4 90 м
[Sc As op]
+19.2 +18.6 96 +22 +22 комфорт 1015.7 1014.5 +18.0 +24.4 0.0
15 19.02 штиль 0 8000 м 8/8 180 м
[Cu med, cong]
+19.6 +18.3 92 +22 +23 комфорт 1016.9 1015.7
18 19.02 штиль 0 8000 м 8/4 270 м
[Cu med, cong As op]
+22.8 +20.7 88 +30 +36 очень
душно
1015.2 1014.0 +17.8 +23.8
21 19.02 штиль 0 8000 м 8/3 240 м
[Sc diur, vesp Ac und]
+23.4 +21.6 90 +32 +36 очень
душно
1011.2 1010.0
00 20.02 штиль 0 8000 м 9/4 120 м
[Frnb As op]
+21.8 +20.9 95 +28 +28 душно 1009.5 1008.3 +17.8 +24.4
03 20.02 ЮЗ 1 1000 м 8/5 120 м
[Cu med, cong Ac As]
+20.8 +19.9 95 +27 +27 душно 1010.5 1009.4
06 20.02 ЮЗ 1 1000 м 8/5 120 м
[Cu med, cong Ac As]
+20.0 +19.1 95 +24 +24 комфорт 1010.9 1009.8 +24.4
09 20.02 штиль 0 1000 м 8/5 120 м
[Cu med, cong Ac As]
+20.0 +19.1 95 +23 +23 комфорт 1009.7 1008.5
12 20.02 штиль 0 1000 м 8/5 150 м
[Cu med, cong Ac As]
+19.6 +18.6 94 +22 +22 комфорт 1009.0 1007.8 +19.2 +24.4
15 20.02 ЮЗ 1 8000 м 10/6 60 м
[Sc diur, vesp As op]
+20.4 +19.8 96 +26 +26 душно 1012.8 1011.7
18 20.02 З 4 8000 м слаб. морось 10/5 60 м
[Frnb As op]
+19.0 +18 +20 1015.6 1014.4 +22.2 0.0
21 20.02 СЗ 3 8000 м 10/5 90 м
[Sc As op]
+17.8 +17.1 96 +18 +19 1014.2 1013.1
00 21.02 ЮЗ 2 7000 м 10/8 150 м
[Sc As op]
+17.8 +16.8 94 +18 +18 1013.6 1012.4 +16.8 +22.2
03 21.02 СЗ 1 1000 м 10/8 150 м
[Sc As op]
+17.6 +16.6 94 +19 +19 1013.9 1012.8
06 21.02 СЗ 1 1000 м 10/8 150 м
[Sc As op]
+17.4 +16.4 94 +18 +18 1015.1 1014.0 +22.2
09 21.02 СЗ 1 1000 м 10/8 90 м
[Sc As op]
+17.0 +16.3 96 +18 +18 1016.5 1015.3
12 21.02 СЗ 1 1000 м 8/5 90 м
[Sc As op]
+16.6 +15.9 96 +17 +17 1015.7 1014.5 +16.2 +22.2
15 21.02 ЮЗ 1 8000 м 9/8 270 м
[Cu med, cong As op]
+18.4 +16.4 88 +20 +21 1014.9 1013.7
18 21.02 ЮВ 1 8000 м 8/6 400 м
[Cu med, cong As trans]
+22.4 +19.3 83 +28 +34 душно 1013.4 1012.7 +16.2 +23.6
21 21.02 ЮЗ 1 8000 м 10/6 150 м
[Sc diur, vesp As op]
+22.4 +21.2 93 +29 +30 очень
душно
1010.7 1009.5
00 22.02 ЮЗ 1 8000 м 10/8 120 м
[Sc diur, vesp As op]
+21.6 +20.7 95 +27 +27 душно 1009.9 1008.8 +16.2 +24.4
03 22.02 ЮЗ 1 1000 м 8/5 120 м
[Sc As op]
+20.8 +19.9 95 +27 +27 душно 1008.9 1007.7
09 22.02 ЮЗ 1 1000 м слаб. морось 10/8 <50 м
[Sc As op]
+19.6 +19.0 96 +23 +23 комфорт 1009.3 1008.1 0.0
12 22.02 ЮЗ 1 1000 м слаб. морось 10/8 90 м
[Sc As op]
+18.8 +18.2 96 +21 +21 комфорт 1009.5 1008.3 +18.4 +24.4 0.0
15 22.02 ЮЗ 1 8000 м 6/3 150 м
[Cu med, cong As trans]
+20.0 +18.8 93 +24 +28 комфорт 1009.4 1008.2
18 22.02 ЮЗ 1 8000 м 5/3 420 м
[Cu med, cong As trans]
+26.0 +22.8 83 +35 +46 очень
душно
1012.1 1010.9 +18.2 +27.0
21 22.02 ЮВ 2 8000 м 6/3 570 м
[Cu med, cong Cs]
+27.0 +22.6 77 +36 +42 очень
душно
1011.2 1010.0
00 23.02 ЮВ 2 8000 м мгла {туман} 6/3 240 м
[Cu med, cong Ac trans]
+25.4 +23.7 90 +35 +35 очень
душно
1011.2 1010.1 +18.2 +28.8
03 23.02 штиль 0 1000 м 8/4 60 м
[Cu med, cong As op]
+24.0 +23.4 96 +32 +32 очень
душно
1012.4 1011.3
06 23.02 штиль 0 1000 м 9/4 30 м
[Cu med, cong As op]
+22.2 +21.9 98 +29 +29 очень
душно
1013.8 1012.6 +18.2 +28.8
09 23.02 штиль 0 1000 м 10/5 30 м
[Cu med, cong As op]
+21.8 +21.5 98 +28 +28 душно 1013.6 1012.5
12 23.02 штиль 0 1000 м дымка {туман} 6/3 30 м
[Sc As op]
+22.2 +21.9 98 +29 +29 очень
душно
1014.0 1012.9 +20.6 +28.8
15 23.02 СЗ 1 8000 м дымка {туман} 9/5 60 м
[Sc As op]
+22.2 +21.9 98 +29 +31 очень
душно
1014.2 1013.0
18 23.02 СЗ 1 8000 м мгла {туман} 8/3 240 м
[Sc diur, vesp Ac trans Cs]
+25.6 +23.9 90 +35 +44 очень
душно
1013.7 1012.5 +20.6 +26.2
21 23.02 ЮВ 1 8000 м 6/3 540 м
[Cu med, cong Cs]
+29.2 +25.0 78 +42 +50 опасность
перегрева
1010.7 1009.5
00 24.02 ЮВ 1 8000 м мгла {туман} 8/3 270 м
[Cu med, cong Ac trans Cs]
+27.6 +25.5 88 +40 +40 очень
душно
1011.7 1010.5 +20.6 +30.8

 

Местоположение метеостанции Туспан (Мексика): широта 20.95 долгота -97.40 высота над уровнем моря 28 м.

В архиве по умолчанию представлена погода в Туспане за последнюю неделю. Архивные данные за месяц целиком и за предыдущие месяцы, начиная с января 2011 года, Вы можете получить, выбрав интересующий диапазон дат из раскрывающегося списка и нажав кнопку "Ввод!".


*Определитесь, кто Вы:
робот инопланетянин человек

Внимание! Время в таблицах - всемирное. Для получения местного времени необходимо прибавить поправку, которая равна -6 ч.

Смотрите также архив погоды в соседних городах и на ближайших метеорологических станциях:

Погода в Тулансинго (Мексика) (140 км)
Погода в Тампико (Мексика) (147 км)
Погода в Маталапе (Мексика) (152 км)
Погода в Халапе (Мексика) (164 км)
Погода в Пачуке (Мексика) (168 км)
Погода в Тамуине (Мексика) (183 км)
Погода в Тлашкале (Мексика) (202 км)
Погода в Тлашкала аэропорту (Мексика) (202 км)
Погода в Пуэбле (Мексика) (226 км)
Погода в Кордове (Мексика) (233 км)

Пояснения к столбцам:

Ветер - указаны скорость ветра в м/с - средняя за 10 мин, порывы в срок и между сроками (в фигурных скобках) и направление, откуда дует ветер: С - северный, СВ - северо-восточный, В - восточный, ЮВ - юго-восточный, Ю - южный, ЮЗ - юго-западный, З - западный, СЗ - северо-западный.
Видимость - горизонтальная дальность видимости в метрах или километрах. При видимости от 1 до 10 км при отсутствии осадков обычно наблюдается дымка, при ухудшении видимости до 1 км и менее - туман. В сухую погоду видимость может ухудшаться дымом, пылью или мглою.
Явления - указаны атмосферные явления, наблюдавшиеся в срок или в последний час перед сроком; фигурными скобками обозначены явления, наблюдавшиеся между сроками (за 1-3 часа до срока); квадратными скобками обозначены град или гололедные отложения с указанием их диаметра в мм.
Облачность - указаны через наклонную черту общая и нижняя облачность в баллах и высота нижней границы облаков в метрах; квадратными скобками обозначены формы облаков: Ci - перистые, Cs - перисто-слоистые, Cc - перисто-кучевые, Ac - высококучевые, As - высокослоистые, Sc - слоисто-кучевые, Ns - слоисто-дождевые, Cu - кучевые, Cb - кучево-дождевые. Подробнее классификацию облаков см. в Атласе облаков (PDF).
T - Температура воздуха - температура, измеренная на высоте 2 м над землей.
Td - Температура точки росы - температура, при понижении до которой содержащийся в воздухе водяной пар достигнет насыщения.
f - Относительная влажность воздуха - влажноcть воздуха, измеренная на высоте 2 м над землей.
Te - Эффективная температура - температура, которую ощущает одетый по сезону человек в тени. Характеристика душности погоды. При расчете учитывается влияние влажности воздуха и скорости ветра на теплоощущения человека.
Tes - Эффективная температура на солнце - температура, которую ощущает человек, с поправкой на солнечный нагрев. Характеристика знойности погоды. Зависит от высоты солнца над горизонтом, облачности и скорости ветра. Ночью, в пасмурную погоду, а также при ветре 12 м/с и более поправка равна нулю.
P - Атмосферное давление - приведенное к уровню моря атмосферное давление.
Po - Атмосферное давление - измеренное на уровне метеостанции атмосферное давление.
Tmin - Минимальная температура - минимум температуры воздуха на высоте 2 м над землей.
Tmax - Максимальная температура - максимум температуры воздуха на высоте 2 м над землей.
R - Количество осадков - Количество выпавших осадков за период времени, мм. При наведении курсора мыши на число - период времени, за который выпало указанное количество осадков.
R24 - Количество осадков - Количество выпавших осадков за 24 часа, мм.
S - Снежный покров - Высота снежного покрова, см. При наведении курсора мыши на число - состояние снежного покрова и степень покрытия местности в баллах.